owner,sensor,date,latitude,longitude,vertical_datum,wind_speed,wind_to_direction,wind_speed_of_gust,qcFlag 
DISL,ioos:station:DISL:MBLA:1,2008-04-01T00:00:00Z,30.4367,-88.0117,14.2,8.45,117.7,-9999.0,'1111122,1111122,1111122' 
DISL,ioos:station:DISL:MBLA:1,2008-04-01T00:30:00Z,30.4367,-88.0117,14.2,8.62,119.4,-9999.0,'1111122,1111122,1111122' 
DISL,ioos:station:DISL:MBLA:1,2008-04-01T01:00:00Z,30.4367,-88.0117,14.2,8.18,117.2,-9999.0,'1111122,1111122,1111122' 
DISL,ioos:station:DISL:MBLA:1,2008-04-01T01:30:00Z,30.4367,-88.0117,14.2,8.21,114.6,-9999.0,'1111122,1111122,1111122' 
DISL,ioos:station:DISL:MBLA:1,2008-04-01T02:00:00Z,30.4367,-88.0117,14.2,8.35,106.1,-9999.0,'1111122,1111122,1111122' 
DISL,ioos:station:DISL:MBLA:1,2008-04-01T02:30:00Z,30.4367,-88.0117,14.2,7.31,107.2,-9999.0,'1111122,1111122,1111122' 
DISL,ioos:station:DISL:MBLA:1,2008-04-01T03:00:00Z,30.4367,-88.0117,14.2,7.75,108.4,-9999.0,'1111122,1111122,1111122' 
DISL,ioos:station:DISL:MBLA:1,2008-04-01T03:30:00Z,30.4367,-88.0117,14.2,7.6,111.8,-9999.0,'1111122,1111122,1111122' 
DISL,ioos:station:DISL:MBLA:1,2008-04-01T04:00:00Z,30.4367,-88.0117,14.2,7.09,110.2,-9999.0,'1111122,1111122,1111122' 
DISL,ioos:station:DISL:MBLA:1,2008-04-01T04:30:00Z,30.4367,-88.0117,14.2,7.96,119.0,-9999.0,'1111122,1111122,1111122' 
DISL,ioos:station:DISL:MBLA:1,2008-04-01T05:00:00Z,30.4367,-88.0117,14.2,9.17,122.1,-9999.0,'1111122,1111122,1111122' 
DISL,ioos:station:DISL:MBLA:1,2008-04-01T05:30:00Z,30.4367,-88.0117,14.2,8.14,118.6,-9999.0,'1111122,1111122,1111122' 
DISL,ioos:station:DISL:MBLA:1,2008-04-01T06:00:00Z,30.4367,-88.0117,14.2,7.38,116.8,-9999.0,'1111122,1111122,1111122' 
DISL,ioos:station:DISL:MBLA:1,2008-04-01T06:30:00Z,30.4367,-88.0117,14.2,7.04,111.8,-9999.0,'1111122,1111122,1111122' 
DISL,ioos:station:DISL:MBLA:1,2008-04-01T07:00:00Z,30.4367,-88.0117,14.2,8.17,119.2,-9999.0,'1111122,1111122,1111122' 
DISL,ioos:station:DISL:MBLA:1,2008-04-01T07:30:00Z,30.4367,-88.0117,14.2,8.78,124.5,-9999.0,'1111122,1111122,1111122' 
DISL,ioos:station:DISL:MBLA:1,2008-04-01T08:00:00Z,30.4367,-88.0117,14.2,7.82,134.8,-9999.0,'1111122,1111122,1111122' 
DISL,ioos:station:DISL:MBLA:1,2008-04-01T08:30:00Z,30.4367,-88.0117,14.2,8.32,138.5,-9999.0,'1111122,1111122,1111122' 
DISL,ioos:station:DISL:MBLA:1,2008-04-01T09:00:00Z,30.4367,-88.0117,14.2,8.04,140.2,-9999.0,'1111122,1111122,1111122' 
DISL,ioos:station:DISL:MBLA:1,2008-04-01T09:30:00Z,30.4367,-88.0117,14.2,8.25,140.1,-9999.0,'1111122,1111122,1111122' 
DISL,ioos:station:DISL:MBLA:1,2008-04-01T10:00:00Z,30.4367,-88.0117,14.2,7.46,140.3,-9999.0,'1111122,1111122,1111122' 
DISL,ioos:station:DISL:MBLA:1,2008-04-01T10:30:00Z,30.4367,-88.0117,14.2,8.62,144.0,-9999.0,'1111122,1111122,1111122' 
DISL,ioos:station:DISL:MBLA:1,2008-04-01T11:00:00Z,30.4367,-88.0117,14.2,7.05,146.2,-9999.0,'1111122,1111122,1111122' 
DISL,ioos:station:DISL:MBLA:1,2008-04-01T11:30:00Z,30.4367,-88.0117,14.2,7.71,150.0,-9999.0,'1111122,1111122,1111122' 
DISL,ioos:station:DISL:MBLA:1,2008-04-01T12:00:00Z,30.4367,-88.0117,14.2,8.73,157.9,-9999.0,'1111122,1111122,1111122' 
DISL,ioos:station:DISL:MBLA:1,2008-04-01T12:30:00Z,30.4367,-88.0117,14.2,8.62,158.5,-9999.0,'1111122,1111122,1111122' 
DISL,ioos:station:DISL:MBLA:1,2008-04-01T13:00:00Z,30.4367,-88.0117,14.2,7.91,159.8,-9999.0,'1111122,1111122,1111122' 
DISL,ioos:station:DISL:MBLA:1,2008-04-01T13:30:00Z,30.4367,-88.0117,14.2,7.2,157.2,-9999.0,'1111122,1111122,1111122' 
DISL,ioos:station:DISL:MBLA:1,2008-04-01T14:00:00Z,30.4367,-88.0117,14.2,6.86,157.6,-9999.0,'1111122,1111122,1111122' 
DISL,ioos:station:DISL:MBLA:1,2008-04-01T14:30:00Z,30.4367,-88.0117,14.2,7.23,150.0,-9999.0,'1111122,1111122,1111122' 
DISL,ioos:station:DISL:MBLA:1,2008-04-01T15:00:00Z,30.4367,-88.0117,14.2,7.27,147.1,-9999.0,'1111122,1111122,1111122' 
DISL,ioos:station:DISL:MBLA:1,2008-04-01T15:30:00Z,30.4367,-88.0117,14.2,5.28,135.1,-9999.0,'1111122,1111122,1111122' 
DISL,ioos:station:DISL:MBLA:1,2008-04-01T16:00:00Z,30.4367,-88.0117,14.2,5.51,137.5,-9999.0,'1111122,1111122,1111122' 
DISL,ioos:station:DISL:MBLA:1,2008-04-01T16:30:00Z,30.4367,-88.0117,14.2,4.41,132.6,-9999.0,'1111122,1111122,1111122' 
DISL,ioos:station:DISL:MBLA:1,2008-04-01T17:00:00Z,30.4367,-88.0117,14.2,4.46,134.7,-9999.0,'1111122,1111122,1111122' 
DISL,ioos:station:DISL:MBLA:1,2008-04-01T17:30:00Z,30.4367,-88.0117,14.2,4.0,140.8,-9999.0,'1111122,1111122,1111122' 
DISL,ioos:station:DISL:MBLA:1,2008-04-01T18:00:00Z,30.4367,-88.0117,14.2,4.52,141.4,-9999.0,'1111122,1111122,1111122' 
DISL,ioos:station:DISL:MBLA:1,2008-04-01T18:30:00Z,30.4367,-88.0117,14.2,3.95,141.7,-9999.0,'1111122,1111122,1111122' 
DISL,ioos:station:DISL:MBLA:1,2008-04-01T19:00:00Z,30.4367,-88.0117,14.2,5.32,138.7,-9999.0,'1111122,1111122,1111122' 
DISL,ioos:station:DISL:MBLA:1,2008-04-01T19:30:00Z,30.4367,-88.0117,14.2,5.01,133.8,-9999.0,'1111122,1111122,1111122' 
DISL,ioos:station:DISL:MBLA:1,2008-04-01T20:00:00Z,30.4367,-88.0117,14.2,4.19,137.2,-9999.0,'1111122,1111122,1111122' 
DISL,ioos:station:DISL:MBLA:1,2008-04-01T20:30:00Z,30.4367,-88.0117,14.2,7.85,159.3,-9999.0,'1111122,1111122,1111122' 
DISL,ioos:station:DISL:MBLA:1,2008-04-01T21:00:00Z,30.4367,-88.0117,14.2,11.91,156.9,-9999.0,'1111122,1111122,1111122' 
DISL,ioos:station:DISL:MBLA:1,2008-04-01T21:30:00Z,30.4367,-88.0117,14.2,6.54,157.7,-9999.0,'1111122,1111122,1111122' 
DISL,ioos:station:DISL:MBLA:1,2008-04-01T22:00:00Z,30.4367,-88.0117,14.2,5.53,158.8,-9999.0,'1111122,1111122,1111122' 
DISL,ioos:station:DISL:MBLA:1,2008-04-01T22:30:00Z,30.4367,-88.0117,14.2,3.36,103.5,-9999.0,'1111122,1111122,1111122' 
DISL,ioos:station:DISL:MBLA:1,2008-04-01T23:00:00Z,30.4367,-88.0117,14.2,4.29,119.1,-9999.0,'1111122,1111122,1111122' 
DISL,ioos:station:DISL:MBLA:1,2008-04-01T23:30:00Z,30.4367,-88.0117,14.2,4.11,134.8,-9999.0,'1111122,1111122,1111122' 
DISL,ioos:station:DISL:MBLA:1,2008-04-02T00:00:00Z,30.4367,-88.0117,14.2,4.47,113.6,-9999.0,'1111122,1111122,1111122' 
DISL,ioos:station:DISL:MBLA:1,2008-04-02T00:30:00Z,30.4367,-88.0117,14.2,2.96,92.8,-9999.0,'1111122,1111122,1111122' 
DISL,ioos:station:DISL:MBLA:1,2008-04-02T01:00:00Z,30.4367,-88.0117,14.2,3.59,111.7,-9999.0,'1111122,1111122,1111122' 
DISL,ioos:station:DISL:MBLA:1,2008-04-02T01:30:00Z,30.4367,-88.0117,14.2,4.74,153.4,-9999.0,'1111122,1111122,1111122' 
DISL,ioos:station:DISL:MBLA:1,2008-04-02T02:00:00Z,30.4367,-88.0117,14.2,4.37,145.7,-9999.0,'1111122,1111122,1111122' 
DISL,ioos:station:DISL:MBLA:1,2008-04-02T02:30:00Z,30.4367,-88.0117,14.2,2.77,124.8,-9999.0,'1111122,1111122,1111122' 
DISL,ioos:station:DISL:MBLA:1,2008-04-02T03:00:00Z,30.4367,-88.0117,14.2,2.27,96.8,-9999.0,'1111122,1111122,1111122' 
DISL,ioos:station:DISL:MBLA:1,2008-04-02T03:30:00Z,30.4367,-88.0117,14.2,2.89,96.9,-9999.0,'1111122,1111122,1111122' 
DISL,ioos:station:DISL:MBLA:1,2008-04-02T04:00:00Z,30.4367,-88.0117,14.2,3.0,110.5,-9999.0,'1111122,1111122,1111122' 
DISL,ioos:station:DISL:MBLA:1,2008-04-02T04:30:00Z,30.4367,-88.0117,14.2,3.75,127.1,-9999.0,'1111122,1111122,1111122' 
DISL,ioos:station:DISL:MBLA:1,2008-04-02T05:00:00Z,30.4367,-88.0117,14.2,2.62,101.0,-9999.0,'1111122,1111122,1111122' 
DISL,ioos:station:DISL:MBLA:1,2008-04-02T05:30:00Z,30.4367,-88.0117,14.2,2.66,129.9,-9999.0,'1111122,1111122,1111122' 
DISL,ioos:station:DISL:MBLA:1,2008-04-02T06:00:00Z,30.4367,-88.0117,14.2,2.62,105.4,-9999.0,'1111122,1111122,1111122' 
DISL,ioos:station:DISL:MBLA:1,2008-04-02T06:30:00Z,30.4367,-88.0117,14.2,3.25,116.5,-9999.0,'1111122,1111122,1111122' 
DISL,ioos:station:DISL:MBLA:1,2008-04-02T07:00:00Z,30.4367,-88.0117,14.2,3.01,155.0,-9999.0,'1111122,1111122,1111122' 
DISL,ioos:station:DISL:MBLA:1,2008-04-02T07:30:00Z,30.4367,-88.0117,14.2,2.96,125.9,-9999.0,'1111122,1111122,1111122' 
DISL,ioos:station:DISL:MBLA:1,2008-04-02T08:00:00Z,30.4367,-88.0117,14.2,3.5,133.3,-9999.0,'1111122,1111122,1111122' 
DISL,ioos:station:DISL:MBLA:1,2008-04-02T08:30:00Z,30.4367,-88.0117,14.2,4.45,147.8,-9999.0,'1111122,1111122,1111122' 
DISL,ioos:station:DISL:MBLA:1,2008-04-02T09:00:00Z,30.4367,-88.0117,14.2,3.73,143.8,-9999.0,'1111122,1111122,1111122' 
DISL,ioos:station:DISL:MBLA:1,2008-04-02T09:30:00Z,30.4367,-88.0117,14.2,3.31,134.3,-9999.0,'1111122,1111122,1111122' 
DISL,ioos:station:DISL:MBLA:1,2008-04-02T10:00:00Z,30.4367,-88.0117,14.2,2.34,134.6,-9999.0,'1111122,1111122,1111122' 
DISL,ioos:station:DISL:MBLA:1,2008-04-02T10:30:00Z,30.4367,-88.0117,14.2,2.3,111.1,-9999.0,'1111122,1111122,1111122' 
DISL,ioos:station:DISL:MBLA:1,2008-04-02T11:00:00Z,30.4367,-88.0117,14.2,2.79,65.81,-9999.0,'1111122,1111122,1111122' 
DISL,ioos:station:DISL:MBLA:1,2008-04-02T11:30:00Z,30.4367,-88.0117,14.2,3.44,52.6,-9999.0,'1111122,1111122,1111122' 
DISL,ioos:station:DISL:MBLA:1,2008-04-02T12:00:00Z,30.4367,-88.0117,14.2,2.71,39.56,-9999.0,'1111122,1111122,1111122' 
DISL,ioos:station:DISL:MBLA:1,2008-04-02T12:30:00Z,30.4367,-88.0117,14.2,2.23,60.55,-9999.0,'1111122,1111122,1111122' 
DISL,ioos:station:DISL:MBLA:1,2008-04-02T13:00:00Z,30.4367,-88.0117,14.2,2.58,47.29,-9999.0,'1111122,1111122,1111122' 
DISL,ioos:station:DISL:MBLA:1,2008-04-02T13:30:00Z,30.4367,-88.0117,14.2,2.0,60.28,-9999.0,'1111122,1111122,1111122' 
DISL,ioos:station:DISL:MBLA:1,2008-04-02T14:00:00Z,30.4367,-88.0117,14.2,1.77,49.8,-9999.0,'1111122,1111122,1111122' 
DISL,ioos:station:DISL:MBLA:1,2008-04-02T14:30:00Z,30.4367,-88.0117,14.2,1.74,22.32,-9999.0,'1111122,1111122,1111122' 
DISL,ioos:station:DISL:MBLA:1,2008-04-02T15:00:00Z,30.4367,-88.0117,14.2,1.45,32.78,-9999.0,'1111122,1111122,1111122' 
DISL,ioos:station:DISL:MBLA:1,2008-04-02T15:30:00Z,30.4367,-88.0117,14.2,0.17,154.3,-9999.0,'1111122,1111122,1111122' 
DISL,ioos:station:DISL:MBLA:1,2008-04-02T16:00:00Z,30.4367,-88.0117,14.2,0.93,291.5,-9999.0,'1111122,1111122,1111122' 
DISL,ioos:station:DISL:MBLA:1,2008-04-02T16:30:00Z,30.4367,-88.0117,14.2,0.06,189.9,-9999.0,'1111122,1111122,1111122' 
DISL,ioos:station:DISL:MBLA:1,2008-04-02T17:00:00Z,30.4367,-88.0117,14.2,0.79,122.0,-9999.0,'1111122,1111122,1111122' 
DISL,ioos:station:DISL:MBLA:1,2008-04-02T17:30:00Z,30.4367,-88.0117,14.2,0.97,116.7,-9999.0,'1111122,1111122,1111122' 
DISL,ioos:station:DISL:MBLA:1,2008-04-02T18:00:00Z,30.4367,-88.0117,14.2,1.98,160.5,-9999.0,'1111122,1111122,1111122' 
DISL,ioos:station:DISL:MBLA:1,2008-04-02T18:30:00Z,30.4367,-88.0117,14.2,3.34,142.8,-9999.0,'1111122,1111122,1111122' 
DISL,ioos:station:DISL:MBLA:1,2008-04-02T19:00:00Z,30.4367,-88.0117,14.2,6.77,143.8,-9999.0,'1111122,1111122,1111122' 
DISL,ioos:station:DISL:MBLA:1,2008-04-02T19:30:00Z,30.4367,-88.0117,14.2,5.66,150.0,-9999.0,'1111122,1111122,1111122' 
DISL,ioos:station:DISL:MBLA:1,2008-04-02T20:00:00Z,30.4367,-88.0117,14.2,5.1,160.3,-9999.0,'1111122,1111122,1111122' 
DISL,ioos:station:DISL:MBLA:1,2008-04-02T20:30:00Z,30.4367,-88.0117,14.2,3.82,187.1,-9999.0,'1111122,1111122,1111122' 
DISL,ioos:station:DISL:MBLA:1,2008-04-02T21:00:00Z,30.4367,-88.0117,14.2,4.03,192.3,-9999.0,'1111122,1111122,1111122' 
DISL,ioos:station:DISL:MBLA:1,2008-04-02T21:30:00Z,30.4367,-88.0117,14.2,3.62,196.0,-9999.0,'1111122,1111122,1111122' 
DISL,ioos:station:DISL:MBLA:1,2008-04-02T22:00:00Z,30.4367,-88.0117,14.2,4.25,210.2,-9999.0,'1111122,1111122,1111122' 
DISL,ioos:station:DISL:MBLA:1,2008-04-02T22:30:00Z,30.4367,-88.0117,14.2,5.03,196.1,-9999.0,'1111122,1111122,1111122' 
DISL,ioos:station:DISL:MBLA:1,2008-04-02T23:00:00Z,30.4367,-88.0117,14.2,6.36,179.1,-9999.0,'1111122,1111122,1111122' 
DISL,ioos:station:DISL:MBLA:1,2008-04-02T23:30:00Z,30.4367,-88.0117,14.2,6.53,177.2,-9999.0,'1111122,1111122,1111122' 
DISL,ioos:station:DISL:MBLA:1,2008-04-03T00:00:00Z,30.4367,-88.0117,14.2,6.12,171.2,-9999.0,'1111122,1111122,1111122' 
DISL,ioos:station:DISL:MBLA:1,2008-04-03T00:30:00Z,30.4367,-88.0117,14.2,4.76,176.1,-9999.0,'1111122,1111122,1111122' 
DISL,ioos:station:DISL:MBLA:1,2008-04-03T01:00:00Z,30.4367,-88.0117,14.2,6.15,171.1,-9999.0,'1111122,1111122,1111122' 
DISL,ioos:station:DISL:MBLA:1,2008-04-03T01:30:00Z,30.4367,-88.0117,14.2,5.15,165.8,-9999.0,'1111122,1111122,1111122' 
DISL,ioos:station:DISL:MBLA:1,2008-04-03T02:00:00Z,30.4367,-88.0117,14.2,4.32,166.0,-9999.0,'1111122,1111122,1111122' 
DISL,ioos:station:DISL:MBLA:1,2008-04-03T02:30:00Z,30.4367,-88.0117,14.2,2.86,165.0,-9999.0,'1111122,1111122,1111122' 
DISL,ioos:station:DISL:MBLA:1,2008-04-03T03:00:00Z,30.4367,-88.0117,14.2,2.6,158.8,-9999.0,'1111122,1111122,1111122' 
DISL,ioos:station:DISL:MBLA:1,2008-04-03T03:30:00Z,30.4367,-88.0117,14.2,1.62,182.7,-9999.0,'1111122,1111122,1111122' 
DISL,ioos:station:DISL:MBLA:1,2008-04-03T04:00:00Z,30.4367,-88.0117,14.2,1.11,131.1,-9999.0,'1111122,1111122,1111122' 
DISL,ioos:station:DISL:MBLA:1,2008-04-03T04:30:00Z,30.4367,-88.0117,14.2,3.0,114.6,-9999.0,'1111122,1111122,1111122' 
DISL,ioos:station:DISL:MBLA:1,2008-04-03T05:00:00Z,30.4367,-88.0117,14.2,2.59,130.5,-9999.0,'1111122,1111122,1111122' 
DISL,ioos:station:DISL:MBLA:1,2008-04-03T05:30:00Z,30.4367,-88.0117,14.2,2.81,128.0,-9999.0,'1111122,1111122,1111122' 
DISL,ioos:station:DISL:MBLA:1,2008-04-03T06:00:00Z,30.4367,-88.0117,14.2,3.76,127.6,-9999.0,'1111122,1111122,1111122' 
DISL,ioos:station:DISL:MBLA:1,2008-04-03T06:30:00Z,30.4367,-88.0117,14.2,3.67,111.3,-9999.0,'1111122,1111122,1111122' 
DISL,ioos:station:DISL:MBLA:1,2008-04-03T07:00:00Z,30.4367,-88.0117,14.2,4.3,138.7,-9999.0,'1111122,1111122,1111122' 
DISL,ioos:station:DISL:MBLA:1,2008-04-03T07:30:00Z,30.4367,-88.0117,14.2,3.42,157.1,-9999.0,'1111122,1111122,1111122' 
DISL,ioos:station:DISL:MBLA:1,2008-04-03T08:00:00Z,30.4367,-88.0117,14.2,2.94,150.2,-9999.0,'1111122,1111122,1111122' 
DISL,ioos:station:DISL:MBLA:1,2008-04-03T08:30:00Z,30.4367,-88.0117,14.2,3.78,148.4,-9999.0,'1111122,1111122,1111122' 
DISL,ioos:station:DISL:MBLA:1,2008-04-03T09:00:00Z,30.4367,-88.0117,14.2,3.43,145.1,-9999.0,'1111122,1111122,1111122' 
DISL,ioos:station:DISL:MBLA:1,2008-04-03T09:30:00Z,30.4367,-88.0117,14.2,2.93,139.5,-9999.0,'1111122,1111122,1111122' 
DISL,ioos:station:DISL:MBLA:1,2008-04-03T10:00:00Z,30.4367,-88.0117,14.2,2.62,137.7,-9999.0,'1111122,1111122,1111122' 
DISL,ioos:station:DISL:MBLA:1,2008-04-03T10:30:00Z,30.4367,-88.0117,14.2,2.95,126.9,-9999.0,'1111122,1111122,1111122' 
DISL,ioos:station:DISL:MBLA:1,2008-04-03T11:00:00Z,30.4367,-88.0117,14.2,3.58,127.8,-9999.0,'1111122,1111122,1111122' 
DISL,ioos:station:DISL:MBLA:1,2008-04-03T11:30:00Z,30.4367,-88.0117,14.2,3.27,144.5,-9999.0,'1111122,1111122,1111122' 
DISL,ioos:station:DISL:MBLA:1,2008-04-03T12:00:00Z,30.4367,-88.0117,14.2,3.78,137.1,-9999.0,'1111122,1111122,1111122' 
DISL,ioos:station:DISL:MBLA:1,2008-04-03T12:30:00Z,30.4367,-88.0117,14.2,4.28,139.2,-9999.0,'1111122,1111122,1111122' 
DISL,ioos:station:DISL:MBLA:1,2008-04-03T13:00:00Z,30.4367,-88.0117,14.2,5.61,146.7,-9999.0,'1111122,1111122,1111122' 
DISL,ioos:station:DISL:MBLA:1,2008-04-03T13:30:00Z,30.4367,-88.0117,14.2,6.34,148.1,-9999.0,'1111122,1111122,1111122' 
DISL,ioos:station:DISL:MBLA:1,2008-04-03T14:00:00Z,30.4367,-88.0117,14.2,6.78,147.1,-9999.0,'1111122,1111122,1111122' 
DISL,ioos:station:DISL:MBLA:1,2008-04-03T14:30:00Z,30.4367,-88.0117,14.2,6.37,156.9,-9999.0,'1111122,1111122,1111122' 
DISL,ioos:station:DISL:MBLA:1,2008-04-03T15:00:00Z,30.4367,-88.0117,14.2,7.95,151.1,-9999.0,'1111122,1111122,1111122' 
DISL,ioos:station:DISL:MBLA:1,2008-04-03T15:30:00Z,30.4367,-88.0117,14.2,5.98,154.5,-9999.0,'1111122,1111122,1111122' 
DISL,ioos:station:DISL:MBLA:1,2008-04-03T16:00:00Z,30.4367,-88.0117,14.2,5.94,155.0,-9999.0,'1111122,1111122,1111122' 
DISL,ioos:station:DISL:MBLA:1,2008-04-03T16:30:00Z,30.4367,-88.0117,14.2,7.56,151.9,-9999.0,'1111122,1111122,1111122' 
DISL,ioos:station:DISL:MBLA:1,2008-04-03T17:00:00Z,30.4367,-88.0117,14.2,9.37,152.5,-9999.0,'1111122,1111122,1111122' 
DISL,ioos:station:DISL:MBLA:1,2008-04-03T17:30:00Z,30.4367,-88.0117,14.2,8.5,156.4,-9999.0,'1111122,1111122,1111122' 
DISL,ioos:station:DISL:MBLA:1,2008-04-03T18:00:00Z,30.4367,-88.0117,14.2,8.98,155.1,-9999.0,'1111122,1111122,1111122' 
DISL,ioos:station:DISL:MBLA:1,2008-04-03T18:30:00Z,30.4367,-88.0117,14.2,8.58,155.6,-9999.0,'1111122,1111122,1111122' 
DISL,ioos:station:DISL:MBLA:1,2008-04-03T19:00:00Z,30.4367,-88.0117,14.2,8.26,152.4,-9999.0,'1111122,1111122,1111122' 
DISL,ioos:station:DISL:MBLA:1,2008-04-03T19:30:00Z,30.4367,-88.0117,14.2,7.74,153.8,-9999.0,'1111122,1111122,1111122' 
DISL,ioos:station:DISL:MBLA:1,2008-04-03T20:00:00Z,30.4367,-88.0117,14.2,8.73,154.9,-9999.0,'1111122,1111122,1111122' 
DISL,ioos:station:DISL:MBLA:1,2008-04-03T20:30:00Z,30.4367,-88.0117,14.2,7.88,151.9,-9999.0,'1111122,1111122,1111122' 
DISL,ioos:station:DISL:MBLA:1,2008-04-03T21:00:00Z,30.4367,-88.0117,14.2,7.35,152.5,-9999.0,'1111122,1111122,1111122' 
DISL,ioos:station:DISL:MBLA:1,2008-04-03T21:30:00Z,30.4367,-88.0117,14.2,6.89,149.7,-9999.0,'1111122,1111122,1111122' 
DISL,ioos:station:DISL:MBLA:1,2008-04-03T22:00:00Z,30.4367,-88.0117,14.2,7.37,147.0,-9999.0,'1111122,1111122,1111122' 
DISL,ioos:station:DISL:MBLA:1,2008-04-03T22:30:00Z,30.4367,-88.0117,14.2,7.94,144.5,-9999.0,'1111122,1111122,1111122' 
DISL,ioos:station:DISL:MBLA:1,2008-04-03T23:00:00Z,30.4367,-88.0117,14.2,7.51,144.6,-9999.0,'1111122,1111122,1111122' 
DISL,ioos:station:DISL:MBLA:1,2008-04-03T23:30:00Z,30.4367,-88.0117,14.2,8.43,140.9,-9999.0,'1111122,1111122,1111122' 
DISL,ioos:station:DISL:MBLA:1,2008-04-04T00:00:00Z,30.4367,-88.0117,14.2,8.25,139.1,-9999.0,'1111122,1111122,1111122' 
DISL,ioos:station:DISL:MBLA:1,2008-04-04T00:30:00Z,30.4367,-88.0117,14.2,7.82,139.1,-9999.0,'1111122,1111122,1111122' 
DISL,ioos:station:DISL:MBLA:1,2008-04-04T01:00:00Z,30.4367,-88.0117,14.2,7.76,141.4,-9999.0,'1111122,1111122,1111122' 
DISL,ioos:station:DISL:MBLA:1,2008-04-04T01:30:00Z,30.4367,-88.0117,14.2,7.72,141.6,-9999.0,'1111122,1111122,1111122' 
DISL,ioos:station:DISL:MBLA:1,2008-04-04T02:00:00Z,30.4367,-88.0117,14.2,7.53,138.6,-9999.0,'1111122,1111122,1111122' 
DISL,ioos:station:DISL:MBLA:1,2008-04-04T02:30:00Z,30.4367,-88.0117,14.2,7.8,140.7,-9999.0,'1111122,1111122,1111122' 
DISL,ioos:station:DISL:MBLA:1,2008-04-04T03:00:00Z,30.4367,-88.0117,14.2,8.18,143.4,-9999.0,'1111122,1111122,1111122' 
DISL,ioos:station:DISL:MBLA:1,2008-04-04T03:30:00Z,30.4367,-88.0117,14.2,8.54,140.2,-9999.0,'1111122,1111122,1111122' 
DISL,ioos:station:DISL:MBLA:1,2008-04-04T04:00:00Z,30.4367,-88.0117,14.2,8.99,145.7,-9999.0,'1111122,1111122,1111122' 
DISL,ioos:station:DISL:MBLA:1,2008-04-04T04:30:00Z,30.4367,-88.0117,14.2,9.32,146.8,-9999.0,'1111122,1111122,1111122' 
DISL,ioos:station:DISL:MBLA:1,2008-04-04T05:00:00Z,30.4367,-88.0117,14.2,8.76,148.9,-9999.0,'1111122,1111122,1111122' 
DISL,ioos:station:DISL:MBLA:1,2008-04-04T05:30:00Z,30.4367,-88.0117,14.2,8.91,150.1,-9999.0,'1111122,1111122,1111122' 
DISL,ioos:station:DISL:MBLA:1,2008-04-04T06:00:00Z,30.4367,-88.0117,14.2,8.88,155.7,-9999.0,'1111122,1111122,1111122' 
DISL,ioos:station:DISL:MBLA:1,2008-04-04T06:30:00Z,30.4367,-88.0117,14.2,9.66,155.4,-9999.0,'1111122,1111122,1111122' 
DISL,ioos:station:DISL:MBLA:1,2008-04-04T07:00:00Z,30.4367,-88.0117,14.2,8.77,157.0,-9999.0,'1111122,1111122,1111122' 
DISL,ioos:station:DISL:MBLA:1,2008-04-04T07:30:00Z,30.4367,-88.0117,14.2,9.03,161.6,-9999.0,'1111122,1111122,1111122' 
DISL,ioos:station:DISL:MBLA:1,2008-04-04T08:00:00Z,30.4367,-88.0117,14.2,8.96,164.0,-9999.0,'1111122,1111122,1111122' 
DISL,ioos:station:DISL:MBLA:1,2008-04-04T08:30:00Z,30.4367,-88.0117,14.2,8.82,158.4,-9999.0,'1111122,1111122,1111122' 
DISL,ioos:station:DISL:MBLA:1,2008-04-04T09:00:00Z,30.4367,-88.0117,14.2,9.52,159.9,-9999.0,'1111122,1111122,1111122' 
DISL,ioos:station:DISL:MBLA:1,2008-04-04T09:30:00Z,30.4367,-88.0117,14.2,8.49,159.9,-9999.0,'1111122,1111122,1111122' 
DISL,ioos:station:DISL:MBLA:1,2008-04-04T10:00:00Z,30.4367,-88.0117,14.2,8.28,166.8,-9999.0,'1111122,1111122,1111122' 
DISL,ioos:station:DISL:MBLA:1,2008-04-04T10:30:00Z,30.4367,-88.0117,14.2,7.99,170.2,-9999.0,'1111122,1111122,1111122' 
DISL,ioos:station:DISL:MBLA:1,2008-04-04T11:00:00Z,30.4367,-88.0117,14.2,7.9,170.0,-9999.0,'1111122,1111122,1111122' 
DISL,ioos:station:DISL:MBLA:1,2008-04-04T11:30:00Z,30.4367,-88.0117,14.2,6.92,171.1,-9999.0,'1111122,1111122,1111122' 
DISL,ioos:station:DISL:MBLA:1,2008-04-04T12:00:00Z,30.4367,-88.0117,14.2,6.69,163.4,-9999.0,'1111122,1111122,1111122' 
DISL,ioos:station:DISL:MBLA:1,2008-04-04T12:30:00Z,30.4367,-88.0117,14.2,5.28,165.0,-9999.0,'1111122,1111122,1111122' 
DISL,ioos:station:DISL:MBLA:1,2008-04-04T13:00:00Z,30.4367,-88.0117,14.2,6.77,156.4,-9999.0,'1111122,1111122,1111122' 
DISL,ioos:station:DISL:MBLA:1,2008-04-04T13:30:00Z,30.4367,-88.0117,14.2,5.49,155.2,-9999.0,'1111122,1111122,1111122' 
DISL,ioos:station:DISL:MBLA:1,2008-04-04T14:00:00Z,30.4367,-88.0117,14.2,6.4,159.1,-9999.0,'1111122,1111122,1111122' 
DISL,ioos:station:DISL:MBLA:1,2008-04-04T14:30:00Z,30.4367,-88.0117,14.2,5.45,163.8,-9999.0,'1111122,1111122,1111122' 
DISL,ioos:station:DISL:MBLA:1,2008-04-04T15:00:00Z,30.4367,-88.0117,14.2,5.75,158.7,-9999.0,'1111122,1111122,1111122' 
DISL,ioos:station:DISL:MBLA:1,2008-04-04T15:30:00Z,30.4367,-88.0117,14.2,5.49,157.1,-9999.0,'1111122,1111122,1111122' 
DISL,ioos:station:DISL:MBLA:1,2008-04-04T16:00:00Z,30.4367,-88.0117,14.2,4.83,153.3,-9999.0,'1111122,1111122,1111122' 
DISL,ioos:station:DISL:MBLA:1,2008-04-04T16:30:00Z,30.4367,-88.0117,14.2,6.85,145.7,-9999.0,'1111122,1111122,1111122' 
DISL,ioos:station:DISL:MBLA:1,2008-04-04T17:00:00Z,30.4367,-88.0117,14.2,7.7,148.6,-9999.0,'1111122,1111122,1111122' 
DISL,ioos:station:DISL:MBLA:1,2008-04-04T17:30:00Z,30.4367,-88.0117,14.2,8.58,149.4,-9999.0,'1111122,1111122,1111122' 
DISL,ioos:station:DISL:MBLA:1,2008-04-04T18:00:00Z,30.4367,-88.0117,14.2,8.92,155.5,-9999.0,'1111122,1111122,1111122' 
DISL,ioos:station:DISL:MBLA:1,2008-04-04T18:30:00Z,30.4367,-88.0117,14.2,6.98,156.7,-9999.0,'1111122,1111122,1111122' 
DISL,ioos:station:DISL:MBLA:1,2008-04-04T19:00:00Z,30.4367,-88.0117,14.2,6.75,161.2,-9999.0,'1111122,1111122,1111122' 
DISL,ioos:station:DISL:MBLA:1,2008-04-04T19:30:00Z,30.4367,-88.0117,14.2,6.09,164.1,-9999.0,'1111122,1111122,1111122' 
DISL,ioos:station:DISL:MBLA:1,2008-04-04T20:00:00Z,30.4367,-88.0117,14.2,8.23,171.1,-9999.0,'1111122,1111122,1111122' 
DISL,ioos:station:DISL:MBLA:1,2008-04-04T20:30:00Z,30.4367,-88.0117,14.2,7.61,170.4,-9999.0,'1111122,1111122,1111122' 
DISL,ioos:station:DISL:MBLA:1,2008-04-04T21:00:00Z,30.4367,-88.0117,14.2,7.78,171.5,-9999.0,'1111122,1111122,1111122' 
DISL,ioos:station:DISL:MBLA:1,2008-04-04T21:30:00Z,30.4367,-88.0117,14.2,6.15,177.5,-9999.0,'1111122,1111122,1111122' 
DISL,ioos:station:DISL:MBLA:1,2008-04-04T22:00:00Z,30.4367,-88.0117,14.2,6.97,172.3,-9999.0,'1111122,1111122,1111122' 
DISL,ioos:station:DISL:MBLA:1,2008-04-04T22:30:00Z,30.4367,-88.0117,14.2,7.39,173.4,-9999.0,'1111122,1111122,1111122' 
DISL,ioos:station:DISL:MBLA:1,2008-04-04T23:00:00Z,30.4367,-88.0117,14.2,7.29,172.1,-9999.0,'1111122,1111122,1111122' 
DISL,ioos:station:DISL:MBLA:1,2008-04-04T23:30:00Z,30.4367,-88.0117,14.2,7.64,171.2,-9999.0,'1111122,1111122,1111122' 
DISL,ioos:station:DISL:MBLA:1,2008-04-05T00:00:00Z,30.4367,-88.0117,14.2,6.76,176.9,-9999.0,'1111122,1111122,1111122' 
DISL,ioos:station:DISL:MBLA:1,2008-04-05T00:30:00Z,30.4367,-88.0117,14.2,6.7,173.1,-9999.0,'1111122,1111122,1111122' 
DISL,ioos:station:DISL:MBLA:1,2008-04-05T01:00:00Z,30.4367,-88.0117,14.2,7.09,171.4,-9999.0,'1111122,1111122,1111122' 
DISL,ioos:station:DISL:MBLA:1,2008-04-05T01:30:00Z,30.4367,-88.0117,14.2,6.7,174.8,-9999.0,'1111122,1111122,1111122' 
DISL,ioos:station:DISL:MBLA:1,2008-04-05T02:00:00Z,30.4367,-88.0117,14.2,7.11,169.9,-9999.0,'1111122,1111122,1111122' 
DISL,ioos:station:DISL:MBLA:1,2008-04-05T02:30:00Z,30.4367,-88.0117,14.2,6.92,170.7,-9999.0,'1111122,1111122,1111122' 
DISL,ioos:station:DISL:MBLA:1,2008-04-05T03:00:00Z,30.4367,-88.0117,14.2,7.55,183.8,-9999.0,'1111122,1111122,1111122' 
DISL,ioos:station:DISL:MBLA:1,2008-04-05T03:30:00Z,30.4367,-88.0117,14.2,7.71,179.2,-9999.0,'1111122,1111122,1111122' 